| |
Missouri Department of Transportation

Social Media Facebook Twitter Flickr Blog YouTube RSS

Current AWOS Information

 
AWOS Home - General Info for all Airports
Current AWOS for all Airports - Current METAR for all Airports
Glossary - Disclaimer - Other Links


LEBANON--FLOYD W JONES LEBANON--KLBO
 
Recent AWOS History
 
11/28/14     05:52 PM CST      23:52 GMT
Air Temperature 52°F (11°C ) 1st Cloud Layer Clear
Dew Point 34°F (1°C) 2nd Cloud Layer  
Barometric Pressure 29.9 in Hg. 3rd Cloud Layer  
Wind Speed 10 mph (9 knots) Density Altitude  
Peak Wind Gusts 18 mph (16 knots) Variable Wind Directions  
Wind Direction Quadrant(170°) Variable Visibility  
Visibility 10 statute miles  

Thunderstorm and Precipitation Identification: 
Thunderstorm Remarks: 

Current METAR Record: METAR KLBO 282345Z AUTO 18011G16KT 10SM CLR 11/01 A2989 RMK AO2

 

 

 

About Us
How Do I...
Contact Us
Missouri Department of Transportation
Central Office
105 W. Capitol Avenue
Jefferson City, MO 65102
1-888-ASK-MODOT (275-6636)
1-866-831-6277 (Motor Carrier Services)
Drivers License Offices
horz_bar
| | |
Missouri State Government
© 2013 Missouri Department of Transportation. All Rights Reserved.   Privacy Policy.
 
 
 
 
RSS FeedYoutubeBlogFlickrTwitter Facebook